www.pogodaiklimat.ru

Погода и климат >> Архив погоды >> Австралия >> Rowley Shoals


ПОГОДА в Rowley Shoals

  • Прогноз погоды в Rowley Shoals
  • Монитор погоды в Rowley Shoals
  • Климат города

АРХИВ ПОГОДЫ в Rowley Shoals

Время (UTC), дата Ветер
(напр.,м/с)
 
Видим.   Явления Облачность Т
(С)
Тd
(С)
f
(%)
Тe
(С)
Тes
(С)
Комфортность P
(гПа)
Po
(гПа)
Тmin
(С)
Tmax
(С)
R
(мм)
R24
(мм)
S
(см)
19 18.04 З 5 н/о н/о +28.1 +23 +23 комфорт 1010.1 1009.3
20 18.04 З 5 н/о н/о +28.2 +23 +23 комфорт 1010.2 1009.4
21 18.04 З 5 н/о н/о +28.2 +23 +23 комфорт 1010.4 1009.6
22 18.04 З 5 н/о н/о +28.3 +23 +23 комфорт 1010.8 1010.0
23 18.04 З 5 н/о н/о +28.3 +23 +23 комфорт 1011.5 1010.7
00 19.04 ЮЗ 7 н/о н/о +28.2 +23 +23 комфорт 1012.0 1011.2
01 19.04 ЮЗ 6 н/о н/о +28.3 +23 +23 комфорт 1012.2 1011.4
02 19.04 ЮЗ 6 н/о н/о +28.5 +24 +24 комфорт 1012.4 1011.6
03 19.04 ЮЗ 5 н/о н/о +28.5 +24 +24 комфорт 1011.9 1011.1
04 19.04 Ю 4 н/о н/о +28.3 +23 +23 комфорт 1011.3 1010.5
05 19.04 Ю 4 н/о н/о +28.3 +23 +23 комфорт 1010.9 1010.1
06 19.04 ЮЗ 5 н/о н/о +28.3 +23 +23 комфорт 1010.8 1010.0
07 19.04 Ю 4 н/о н/о +28.3 +23 +23 комфорт 1010.6 1009.8
08 19.04 ЮЗ 4 н/о н/о +28.3 +23 +23 комфорт 1010.9 1010.1
09 19.04 ЮЗ 4 н/о н/о +28.3 +23 +23 комфорт 1011.5 1010.7
10 19.04 Ю 4 н/о н/о +28.1 +23 +23 комфорт 1011.9 1011.1
11 19.04 Ю 5 н/о н/о +28.1 +23 +23 комфорт 1012.7 1011.9
12 19.04 Ю 3 н/о н/о +28.1 +23 +23 комфорт 1013.5 1012.7
13 19.04 Ю 3 н/о н/о +27.9 +23 +23 комфорт 1013.7 1012.9
14 19.04 Ю 3 н/о н/о +27.9 +23 +23 комфорт 1013.8 1013.0
15 19.04 Ю 3 н/о н/о +27.9 +23 +23 комфорт 1013.8 1013.0
16 19.04 ЮЗ 3 н/о н/о +27.8 +23 +23 комфорт 1013.5 1012.7
17 19.04 Ю 2 н/о н/о +27.8 +23 +23 комфорт 1013.3 1012.5
18 19.04 ЮЗ 3 н/о н/о +27.8 +23 +23 комфорт 1013.0 1012.2
19 19.04 Ю 3 н/о н/о +27.7 +23 +23 комфорт 1012.6 1011.8
20 19.04 Ю 2 н/о н/о +27.6 +23 +23 комфорт 1012.6 1011.8
21 19.04 ЮЗ 3 н/о н/о +27.6 +23 +23 комфорт 1012.7 1011.9
22 19.04 Ю 3 н/о н/о +27.6 +23 +23 комфорт 1013.2 1012.4
23 19.04 Ю 3 н/о н/о +27.8 +23 +23 комфорт 1013.6 1012.8
00 20.04 Ю 3 н/о н/о +28.5 +24 +24 комфорт 1014.1 1013.3
01 20.04 Ю 2 н/о н/о +28.7 +24 +24 комфорт 1014.4 1013.6
02 20.04 Ю 3 н/о н/о +28.7 +24 +24 комфорт 1014.3 1013.5
03 20.04 ЮВ 4 н/о н/о +28.6 +24 +24 комфорт 1013.9 1013.1
04 20.04 ЮВ 4 н/о н/о +28.3 +23 +23 комфорт 1013.1 1012.3
05 20.04 ЮВ 4 н/о н/о +28.4 +23 +23 комфорт 1012.4 1011.6
06 20.04 ЮВ 4 н/о н/о +28.3 +23 +23 комфорт 1011.8 1011.0
07 20.04 ЮВ 4 н/о н/о +28.4 +23 +23 комфорт 1011.5 1010.7
08 20.04 ЮВ 4 н/о н/о +28.3 +23 +23 комфорт 1011.5 1010.7
09 20.04 ЮВ 4 н/о н/о +28.4 +23 +23 комфорт 1012.0 1011.2
10 20.04 ЮВ 5 н/о н/о +28.2 +23 +23 комфорт 1012.6 1011.8
11 20.04 ЮВ 5 н/о н/о +28.1 +23 +23 комфорт 1013.1 1012.3
12 20.04 ЮВ 5 н/о н/о +28.2 +23 +23 комфорт 1013.7 1012.9
13 20.04 ЮВ 5 н/о н/о +28.1 +23 +23 комфорт 1014.1 1013.3
14 20.04 ЮВ 5 н/о н/о +28.1 +23 +23 комфорт 1014.0 1013.2
15 20.04 ЮВ 5 н/о н/о +27.8 +23 +23 комфорт 1013.5 1012.7
16 20.04 ЮВ 4 н/о н/о +27.9 +23 +23 комфорт 1013.3 1012.5
17 20.04 ЮВ 4 н/о н/о +27.9 +23 +23 комфорт 1012.9 1012.1
18 20.04 ЮВ 4 н/о н/о +27.8 +23 +23 комфорт 1012.5 1011.7
19 20.04 Ю 3 н/о н/о +27.9 +23 +23 комфорт 1012.5 1011.7
20 20.04 Ю 4 н/о н/о +28.0 +23 +23 комфорт 1012.4 1011.6
21 20.04 ЮВ 4 н/о н/о +28.0 +23 +23 комфорт 1012.9 1012.1
22 20.04 ЮВ 4 н/о н/о +28.0 +23 +23 комфорт 1013.3 1012.5
23 20.04 ЮВ 4 н/о н/о +28.1 +23 +23 комфорт 1013.9 1013.1
00 21.04 Ю 4 н/о н/о +28.3 +23 +23 комфорт 1014.3 1013.5
01 21.04 ЮВ 5 н/о н/о +28.3 +23 +23 комфорт 1014.5 1013.7
02 21.04 Ю 5 н/о н/о +28.5 +24 +24 комфорт 1014.4 1013.6
03 21.04 Ю 4 н/о н/о +28.9 +24 +24 комфорт 1013.8 1013.0
04 21.04 Ю 4 н/о н/о +29.3 +24 +24 комфорт 1012.9 1012.1
05 21.04 Ю 4 н/о н/о +29.0 +24 +24 комфорт 1012.3 1011.5
06 21.04 Ю 4 н/о н/о +29.0 +24 +24 комфорт 1011.5 1010.7
07 21.04 Ю 4 н/о н/о +29.1 +24 +24 комфорт 1011.4 1010.6
08 21.04 Ю 6 н/о н/о +28.6 +24 +24 комфорт 1011.2 1010.4
09 21.04 Ю 6 н/о н/о +28.7 +24 +24 комфорт 1011.7 1010.9
10 21.04 Ю 6 н/о н/о +28.6 +24 +24 комфорт 1012.2 1011.4
11 21.04 Ю 5 н/о н/о +28.3 +23 +23 комфорт 1012.6 1011.8
12 21.04 Ю 5 н/о н/о +28.2 +23 +23 комфорт 1013.3 1012.5
13 21.04 Ю 5 н/о н/о +28.1 +23 +23 комфорт 1013.6 1012.8
14 21.04 Ю 4 н/о н/о +28.2 +23 +23 комфорт 1013.6 1012.8
15 21.04 Ю 4 н/о н/о +28.1 +23 +23 комфорт 1013.3 1012.5
16 21.04 Ю 4 н/о н/о +28.3 +23 +23 комфорт 1012.8 1012.0
17 21.04 Ю 5 н/о н/о +28.1 +23 +23 комфорт 1012.3 1011.5
18 21.04 Ю 5 н/о н/о +28.1 +23 +23 комфорт 1011.7 1010.9
19 21.04 Ю 5 н/о н/о +28.2 +23 +23 комфорт 1011.5 1010.7
20 21.04 Ю 5 н/о н/о +28.2 +23 +23 комфорт 1011.2 1010.4
21 21.04 Ю 5 н/о н/о +28.4 +23 +23 комфорт 1011.6 1010.8
22 21.04 Ю 5 н/о н/о +28.7 +24 +24 комфорт 1011.8 1011.0
23 21.04 Ю 5 н/о н/о +28.9 +24 +24 комфорт 1012.6 1011.8
00 22.04 Ю 5 н/о н/о +29.1 +24 +24 комфорт 1013.0 1012.2
01 22.04 Ю 4 н/о н/о +29.3 +24 +24 комфорт 1013.3 1012.5
02 22.04 Ю 5 н/о н/о +29.5 +24 +24 комфорт 1013.2 1012.4
03 22.04 Ю 5 н/о н/о +29.5 +24 +24 комфорт 1012.7 1011.9
04 22.04 Ю 6 н/о н/о +29.3 +24 +24 комфорт 1011.8 1011.0
05 22.04 Ю 6 н/о н/о +29.5 +24 +24 комфорт 1011.1 1010.3
06 22.04 Ю 7 н/о н/о +29.0 +24 +24 комфорт 1010.8 1010.0
07 22.04 ЮВ 7 н/о н/о +28.7 +24 +24 комфорт 1010.7 1009.9
08 22.04 Ю 6 н/о н/о +29.2 +24 +24 комфорт 1010.7 1009.9
09 22.04 Ю 6 н/о н/о +29.0 +24 +24 комфорт 1010.7 1009.9
10 22.04 Ю 5 н/о н/о +29.1 +24 +24 комфорт 1011.2 1010.4
11 22.04 Ю 5 н/о н/о +29.1 +24 +24 комфорт 1011.8 1011.0
12 22.04 Ю 5 н/о н/о +29.1 +24 +24 комфорт 1012.3 1011.5
13 22.04 Ю 4 н/о н/о +29.0 +24 +24 комфорт 1012.7 1011.9
14 22.04 Ю 4 н/о н/о +29.0 +24 +24 комфорт 1012.5 1011.7
15 22.04 Ю 4 н/о н/о +29.0 +24 +24 комфорт 1012.3 1011.5
16 22.04 Ю 4 н/о н/о +28.8 +24 +24 комфорт 1012.1 1011.3
17 22.04 Ю 5 н/о н/о +29.0 +24 +24 комфорт 1011.7 1010.9
18 22.04 Ю 5 н/о н/о +28.7 +24 +24 комфорт 1011.3 1010.5
19 22.04 Ю 5 н/о н/о +28.8 +24 +24 комфорт 1011.1 1010.3
20 22.04 Ю 6 н/о н/о +28.8 +24 +24 комфорт 1011.0 1010.2
21 22.04 Ю 6 н/о н/о +28.7 +24 +24 комфорт 1011.3 1010.5
22 22.04 Ю 6 н/о н/о +28.6 +24 +24 комфорт 1011.7 1010.9
23 22.04 ЮВ 8 н/о н/о +28.8 +24 +24 комфорт 1012.5 1011.7
00 23.04 ЮВ 7 н/о н/о +28.9 +24 +24 комфорт 1012.6 1011.8
01 23.04 ЮВ 6 н/о н/о +29.1 +24 +24 комфорт 1012.7 1011.9
02 23.04 ЮВ 6 н/о н/о +29.2 +24 +24 комфорт 1012.8 1012.0
03 23.04 ЮВ 5 н/о н/о +29.3 +24 +24 комфорт 1012.1 1011.3
04 23.04 ЮВ 6 н/о н/о +29.5 +24 +24 комфорт 1011.4 1010.6
05 23.04 ЮВ 6 н/о н/о +29.4 +24 +24 комфорт 1010.6 1009.8
06 23.04 ЮВ 6 н/о н/о +29.5 +24 +24 комфорт 1010.3 1009.5
07 23.04 ЮВ 7 н/о н/о +29.2 +24 +24 комфорт 1010.2 1009.4
08 23.04 ЮВ 7 н/о н/о +29.3 +24 +24 комфорт 1010.4 1009.6
09 23.04 ЮВ 6 н/о н/о +29.3 +24 +24 комфорт 1010.7 1009.9
10 23.04 Ю 6 н/о н/о +29.2 +24 +24 комфорт 1011.2 1010.4
11 23.04 ЮВ 6 н/о н/о +29.1 +24 +24 комфорт 1011.6 1010.8
12 23.04 ЮВ 5 н/о н/о +29.3 +24 +24 комфорт 1012.4 1011.6
13 23.04 ЮВ 4 н/о н/о +29.1 +24 +24 комфорт 1012.9 1012.1
14 23.04 Ю 3 н/о н/о +28.9 +24 +24 комфорт 1012.9 1012.1
15 23.04 Ю 4 н/о н/о +28.9 +24 +24 комфорт 1012.9 1012.1
16 23.04 Ю 5 н/о н/о +28.8 +24 +24 комфорт 1012.7 1011.9
17 23.04 ЮЗ 6 н/о н/о +28.7 +24 +24 комфорт 1012.3 1011.5
18 23.04 ЮЗ 6 н/о н/о +28.6 +24 +24 комфорт 1012.0 1011.2
19 23.04 ЮЗ 7 н/о н/о +28.7 +24 +24 комфорт 1011.8 1011.0
20 23.04 ЮЗ 7 н/о н/о +28.6 +24 +24 комфорт 1011.7 1010.9
21 23.04 Ю 7 н/о н/о +28.5 +24 +24 комфорт 1011.8 1011.0
22 23.04 ЮЗ 7 н/о н/о +28.5 +24 +24 комфорт 1012.3 1011.5
23 23.04 Ю 7 н/о н/о +28.6 +24 +24 комфорт 1012.8 1012.0
00 24.04 Ю 6 н/о н/о +29.0 +24 +24 комфорт 1013.2 1012.4
01 24.04 Ю 8 н/о н/о +28.8 +24 +24 комфорт 1013.2 1012.4
02 24.04 Ю 6 н/о н/о +28.9 +24 +24 комфорт 1013.4 1012.6
03 24.04 Ю 8 н/о н/о +28.9 +24 +24 комфорт 1012.7 1011.9
04 24.04 Ю 8 н/о н/о +29.0 +24 +24 комфорт 1011.6 1010.8
05 24.04 ЮВ 8 н/о н/о +29.0 +24 +24 комфорт 1011.2 1010.4
06 24.04 ЮВ 7 н/о н/о +29.1 +24 +24 комфорт 1010.9 1010.1
07 24.04 ЮВ 6 н/о н/о +29.2 +24 +24 комфорт 1010.8 1010.0
08 24.04 Ю 5 н/о н/о +29.3 +24 +24 комфорт 1010.6 1009.8
09 24.04 ЮВ 6 н/о н/о +29.0 +24 +24 комфорт 1011.1 1010.3
10 24.04 ЮВ 5 н/о н/о +28.8 +24 +24 комфорт 1011.7 1010.9
11 24.04 ЮВ 4 н/о н/о +29.1 +24 +24 комфорт 1012.2 1011.4
12 24.04 ЮВ 4 н/о н/о +29.0 +24 +24 комфорт 1012.8 1012.0
13 24.04 ЮВ 3 н/о н/о +28.9 +24 +24 комфорт 1013.3 1012.5
14 24.04 Ю 2 н/о н/о +28.8 +24 +24 комфорт 1013.4 1012.6
15 24.04 Ю 3 н/о н/о +28.7 +24 +24 комфорт 1013.0 1012.2
16 24.04 Ю 3 н/о н/о +28.6 +24 +24 комфорт 1012.8 1012.0
17 24.04 ЮЗ 2 н/о н/о +28.4 +23 +23 комфорт 1012.4 1011.6
18 24.04 ЮЗ 5 н/о н/о +28.4 +23 +23 комфорт 1011.9 1011.1
19 24.04 ЮЗ 5 н/о н/о +28.3 +23 +23 комфорт 1011.6 1010.8
20 24.04 ЮЗ 7 н/о н/о +28.3 +23 +23 комфорт 1011.7 1010.9
21 24.04 ЮЗ 8 н/о н/о +28.2 +23 +23 комфорт 1011.4 1010.6
22 24.04 ЮЗ 7 н/о н/о +28.2 +23 +23 комфорт 1012.0 1011.2
23 24.04 Ю 7 н/о н/о +28.3 +23 +23 комфорт 1012.6 1011.8
00 25.04 Ю 7 н/о н/о +28.4 +23 +23 комфорт 1012.8 1012.0
01 25.04 Ю 7 н/о н/о +28.4 +23 +23 комфорт 1013.2 1012.4
02 25.04 Ю 7 н/о н/о +28.6 +24 +24 комфорт 1013.2 1012.4
03 25.04 Ю 5 н/о н/о +29.0 +24 +24 комфорт 1012.5 1011.7
04 25.04 Ю 5 н/о н/о +28.8 +24 +24 комфорт 1011.7 1010.9
05 25.04 Ю 6 н/о н/о +29.0 +24 +24 комфорт 1011.1 1010.3
06 25.04 Ю 6 н/о н/о +29.2 +24 +24 комфорт 1010.8 1010.0
07 25.04 Ю 6 н/о н/о +29.2 +24 +24 комфорт 1010.9 1010.1
08 25.04 Ю 6 н/о н/о +29.0 +24 +24 комфорт 1011.3 1010.5
09 25.04 Ю 6 н/о н/о +28.9 +24 +24 комфорт 1011.7 1010.9
10 25.04 Ю 5 н/о н/о +28.6 +24 +24 комфорт 1012.3 1011.5
11 25.04 Ю 5 н/о н/о +28.3 +23 +23 комфорт 1012.9 1012.1
12 25.04 Ю 5 н/о н/о +28.5 +24 +24 комфорт 1013.6 1012.8
13 25.04 Ю 7 н/о н/о +28.5 +24 +24 комфорт 1013.8 1013.0
14 25.04 Ю 8 н/о н/о +28.4 +23 +23 комфорт 1013.7 1012.9
15 25.04 Ю 8 н/о н/о +28.3 +23 +23 комфорт 1013.3 1012.5
16 25.04 Ю 7 н/о н/о +28.5 +24 +24 комфорт 1013.1 1012.3
17 25.04 Ю 6 н/о н/о +28.7 +24 +24 комфорт 1012.8 1012.0

 

Местоположение метеостанции Rowley Shoals (Западная Австралия, Австралия): широта -17.53 долгота 118.95 высота над уровнем моря 8 м.

В архиве по умолчанию представлена погода в Rowley Shoals за последнюю неделю. Архивные данные за месяц целиком и за предыдущие месяцы, начиная с января 2011 года, Вы можете получить, выбрав интересующий диапазон дат из раскрывающегося списка и нажав кнопку "Ввод!".

Внимание! Время в таблицах - всемирное. Для получения местного времени необходимо прибавить поправку, которая в Rowley Shoals равна 8 ч.

Смотрите также архив погоды в соседних городах и на ближайших метеорологических станциях:

Погода в Mandora (Западная Австралия, Австралия) (316 км)
Погода в Port Hedland Apardoo (Западная Австралия, Австралия) (317 км)
Погода в Broome Airport (Западная Австралия, Австралия) (351 км)
Погода в West Roebuck (Западная Австралия, Австралия) (359 км)
Погода в Roebourne Aero (Западная Австралия, Австралия) (405 км)
Погода в Marble Bar (Западная Австралия, Австралия) (415 км)
Погода в Karratha Aero (Западная Австралия, Австралия) (422 км)
Погода в Varanus Island (Западная Австралия, Австралия) (497 км)
Погода в Derby Aero (Северная территория, Австралия) (500 км)
Погода в Adele Island (Западная Австралия, Австралия) (501 км)

Пояснения к столбцам:

Ветер - указаны скорость ветра в м/с - средняя за 10 мин, порывы в срок и между сроками (в фигурных скобках) и направление, откуда дует ветер: С - северный, СВ - северо-восточный, В - восточный, ЮВ - юго-восточный, Ю - южный, ЮЗ - юго-западный, З - западный, СЗ - северо-западный.
Видимость - горизонтальная дальность видимости в метрах или километрах. При видимости от 1 до 10 км при отсутствии осадков обычно наблюдается дымка, при ухудшении видимости до 1 км и менее - туман. В сухую погоду видимость может ухудшаться дымом, пылью или мглою.
Явления - указаны атмосферные явления, наблюдавшиеся в срок или в последний час перед сроком; фигурными скобками обозначены явления, наблюдавшиеся между сроками (за 1-3 часа до срока); квадратными скобками обозначены град или гололедные отложения с указанием их диаметра в мм.
Облачность - указаны через наклонную черту общая и нижняя облачность в баллах и высота нижней границы облаков в метрах; квадратными скобками обозначены формы облаков: Ci - перистые, Cs - перисто-слоистые, Cc - перисто-кучевые, Ac - высококучевые, As - высокослоистые, Sc - слоисто-кучевые, Ns - слоисто-дождевые, Cu - кучевые, Cb - кучево-дождевые. Подробнее классификацию облаков см. в Атласе облаков (PDF).
T - Температура воздуха - температура, измеренная на высоте 2 м над землей.
Td - Температура точки росы - температура, при понижении до которой содержащийся в воздухе водяной пар достигнет насыщения.
f - Относительная влажность воздуха - влажноcть воздуха, измеренная на высоте 2 м над землей.
Te - Эффективная температура - температура, которую ощущает одетый по сезону человек в тени. Характеристика душности погоды. При расчете учитывается влияние влажности воздуха и скорости ветра на теплоощущения человека.
Tes - Эффективная температура на солнце - температура, которую ощущает человек, с поправкой на солнечный нагрев. Характеристика знойности погоды. Зависит от высоты солнца над горизонтом, облачности и скорости ветра. Ночью, в пасмурную погоду, а также при ветре 12 м/с и более поправка равна нулю.
P - Атмосферное давление - приведенное к уровню моря атмосферное давление.
Po - Атмосферное давление - измеренное на уровне метеостанции атмосферное давление.
Tmin - Минимальная температура - минимум температуры воздуха на высоте 2 м над землей.
Tmax - Максимальная температура - максимум температуры воздуха на высоте 2 м над землей.
R - Количество осадков - Количество выпавших осадков за период времени, мм. При наведении курсора мыши на число - период времени, за который выпало указанное количество осадков.
R24 - Количество осадков - Количество выпавших осадков за 24 часа, мм.
S - Снежный покров - Высота снежного покрова, см. При наведении курсора мыши на число - состояние снежного покрова и степень покрытия местности в баллах.